shoulder
new_line
new_line
first
second
third
Al di la della Luna; Beyond the Moon; Astrophotography; Astrofotografia; Danilo Pivato
 
 
         
         
2020

Orbital Elements

Epoch 2020 November 7.0 TT = JDT 2459160.5
T 2020 November     17.87322 TT                                                             Rudenko
q   1.3330176                  (2000.0)                              P                     Q
n   0.15314455          Peri.     0.42763           -0.81128947     +0.55883944
a   3.4599383            Node   35.36933          -0.53551612     +0.59242160
e   0.6147279            Incl.    17.26317           -0.23458876     -0.58028884
P  6,44
Return in the future: 2020                        
 
         
         
2020.11.06
 
         
         
       
         
         
         
         
         
         

 

       
 
Since: 01/01/2004
 
       
 
Since: 01/11/2010